This is the latest recevied weather packets stored in our database for station/object KI5NXU. If no packets are shown the sender has not sent any weather packets the latest 1 day(s).
| Time | Temp. | Humidity | Pressure | Rain* | Wind** | Luminosity | Snow |
|---|---|---|---|---|---|---|---|
| 1778020997 | 25.56° C | 58% | 1005.1 hPa | 0 mm | 0.45 m/s, 35° | 177 W/m² | - |
| 1778020694 | 25.56° C | 59% | 1004.9 hPa | 0 mm | 1.79 m/s, 62° | 453 W/m² | - |
| 1778020391 | 25.56° C | 60% | 1004.8 hPa | 0 mm | 2.24 m/s, 69° | 227 W/m² | - |
| 1778020086 | 25° C | 60% | 1004.9 hPa | 0 mm | 1.34 m/s, 29° | 354 W/m² | - |
| 1778019783 | 25.56° C | 62% | 1004.9 hPa | 0 mm | 2.24 m/s, 338° | 145 W/m² | - |
| 1778019480 | 25° C | 60% | 1004.9 hPa | 0 mm | 2.24 m/s, 11° | 140 W/m² | - |
| 1778019177 | 25° C | 61% | 1004.5 hPa | 0 mm | 2.24 m/s, 2° | 91 W/m² | - |
| 1778018874 | 25.56° C | 60% | 1004.9 hPa | 0 mm | 2.68 m/s, 9° | 77 W/m² | - |
| 1778018571 | 25.56° C | 60% | 1004.9 hPa | 0 mm | 3.13 m/s, 319° | 107 W/m² | - |
| 1778018269 | 25.56° C | 60% | 1004.9 hPa | 0 mm | 3.58 m/s, 308° | 140 W/m² | - |
| 1778017966 | 25.56° C | 59% | 1004.9 hPa | 0 mm | 3.13 m/s, 16° | 121 W/m² | - |
| 1778017664 | 26.11° C | 59% | 1004.9 hPa | 0 mm | 2.68 m/s, 6° | 121 W/m² | - |
| 1778017361 | 26.11° C | 59% | 1004.9 hPa | 0 mm | 4.02 m/s, 320° | 154 W/m² | - |
| 1778017058 | 26.67° C | 59% | 1004.9 hPa | 0 mm | 1.34 m/s, 72° | 171 W/m² | - |
| 1778016756 | 27.22° C | 57% | 1004.8 hPa | 0 mm | 1.34 m/s, 24° | 207 W/m² | - |
| 1778016451 | 28.33° C | 55% | 1004.6 hPa | 0 mm | 2.24 m/s, 28° | 222 W/m² | - |
| 1778016149 | 28.33° C | 55% | 1004.6 hPa | 0 mm | 3.58 m/s, 15° | 648 W/m² | - |
| 1778015846 | 28.33° C | 55% | 1004.4 hPa | 0 mm | 3.13 m/s, 1° | 438 W/m² | - |
| 1778015543 | 28.33° C | 56% | 1004.5 hPa | 0 mm | 2.24 m/s, 12° | 509 W/m² | - |
| 1778015239 | 28.89° C | 55% | 1004.5 hPa | 0 mm | 3.58 m/s, 348° | 329 W/m² | - |
| 1778014936 | 29.44° C | 53% | 1004.6 hPa | 0 mm | 1.79 m/s, 21° | 535 W/m² | - |
| 1778014634 | 28.89° C | 55% | 1004.5 hPa | 0 mm | 1.34 m/s, 38° | 607 W/m² | - |
| 1778014332 | 28.89° C | 55% | 1004.8 hPa | 0 mm | 2.24 m/s, 5° | 671 W/m² | - |
| 1778014028 | 30° C | 53% | 1004.6 hPa | 0 mm | 2.24 m/s, 346° | 516 W/m² | - |
| 1778013726 | 30° C | 52% | 1004.6 hPa | 0 mm | 1.79 m/s, 21° | 641 W/m² | - |
* Rain latest hour (hover to see other rain measurements)
** Current wind speed in m/s (hover to see current wind gust speed)